This is the latest recevied weather packets stored in our database for station/object AI5BL. If no packets are shown the sender has not sent any weather packets the latest 10 day(s).
| Time | Temp. | Humidity | Pressure | Rain* | Wind** | Luminosity | Snow |
|---|---|---|---|---|---|---|---|
| 1778171307 | 21.67° C | 84% | 1017.6 hPa | 0 mm | - | 356 W/m² | - |
| 1778171003 | 21.67° C | 82% | 1017.7 hPa | 0 mm | - | 200 W/m² | - |
| 1778170700 | 21.67° C | 86% | 1017.7 hPa | 0 mm | - | 274 W/m² | - |
| 1778170397 | 21.11° C | 87% | 1017.7 hPa | 0 mm | - | 408 W/m² | - |
| 1778170094 | 21.11° C | 85% | 1017.8 hPa | 0 mm | - | 498 W/m² | - |
| 1778169789 | 21.11° C | 84% | 1017.6 hPa | 0 mm | - | 299 W/m² | - |
| 1778169485 | 21.67° C | 81% | 1017.4 hPa | 0 mm | - | 332 W/m² | - |
| 1778169181 | 21.67° C | 81% | 1017.2 hPa | 0 mm | - | 450 W/m² | - |
| 1778168878 | 21.11° C | 85% | 1017 hPa | 0 mm | - | 510 W/m² | - |
| 1778168576 | 20° C | 86% | 1017.1 hPa | 0 mm | - | 685 W/m² | - |
| 1778168272 | 20° C | 85% | 1017.2 hPa | 0 mm | - | 386 W/m² | - |
| 1778167969 | 20° C | 87% | 1017.2 hPa | 0 mm | - | 582 W/m² | - |
| 1778167666 | 19.44° C | 88% | 1017.4 hPa | 0 mm | - | 353 W/m² | - |
| 1778167362 | 18.89° C | 90% | 1017.2 hPa | 0 mm | - | 282 W/m² | - |
| 1778167057 | 18.89° C | 92% | 1017.4 hPa | 0 mm | - | 281 W/m² | - |
| 1778166754 | 18.33° C | 93% | 1017.2 hPa | 0 mm | - | 232 W/m² | - |
| 1778166451 | 18.89° C | 93% | 1017.2 hPa | 0 mm | - | 245 W/m² | - |
| 1778166148 | 18.33° C | 94% | 1017.5 hPa | 0 mm | - | 214 W/m² | - |
| 1778165844 | 18.33° C | 95% | 1017.4 hPa | 0 mm | - | 283 W/m² | - |
| 1778165541 | 18.33° C | 96% | 1017.3 hPa | 0 mm | - | 183 W/m² | - |
| 1778165238 | 17.78° C | 96% | 1017.5 hPa | 0 mm | - | 188 W/m² | - |
| 1778164936 | 17.78° C | 97% | 1017.6 hPa | 0 mm | - | 131 W/m² | - |
| 1778164632 | 17.22° C | 97% | 1017.4 hPa | 0 mm | - | 170 W/m² | - |
| 1778164329 | 17.22° C | 98% | 1017.3 hPa | 0 mm | - | 183 W/m² | - |
| 1778164025 | 17.22° C | 99% | 1017.3 hPa | 0 mm | - | 156 W/m² | - |
* Rain latest hour (hover to see other rain measurements)
** Current wind speed in m/s (hover to see current wind gust speed)